Location: *
(41.3833°S, 177.8333°W)
Time: 02:04:47
(UTC+00:00)

OAO 3 Rocket - Pass Details

Date: 01 April 2020
Orbit: 629 x 682 km, 35.0° (Epoch: 31 May)

Event Time Altitude Azimuth Distance (km) Brightness Sun altitude
Exits shadow 16:00:18 32° 14° (NNE) 1,110 4.3 -24.5°
Drops below altitude 10° 16:03:43 10° 55° (NE) 2,038 6.2 -23.9°
Sets 16:06:15 0° 64° (ENE) 2,954 7.3 -23.5°
